Timestamp,Unique Visitors
2016-10-31T00:00:00+01:00,28
2016-10-31T00:15:00+01:00,24
2016-10-31T00:30:00+01:00,25
2016-10-31T00:45:00+01:00,22
2016-10-31T01:00:00+01:00,25
2016-10-31T01:15:00+01:00,24
2016-10-31T01:30:00+01:00,27
2016-10-31T01:45:00+01:00,24
2016-10-31T02:00:00+01:00,22
2016-10-31T02:15:00+01:00,23
2016-10-31T02:30:00+01:00,22
2016-10-31T02:45:00+01:00,20
2016-10-31T03:00:00+01:00,24
2016-10-31T03:15:00+01:00,20
2016-10-31T03:30:00+01:00,24
2016-10-31T03:45:00+01:00,25
2016-10-31T04:00:00+01:00,23
2016-10-31T04:15:00+01:00,22
2016-10-31T04:30:00+01:00,20
2016-10-31T04:45:00+01:00,20
2016-10-31T05:00:00+01:00,24
2016-10-31T05:15:00+01:00,20
2016-10-31T05:30:00+01:00,21
2016-10-31T05:45:00+01:00,23
2016-10-31T06:00:00+01:00,32
2016-10-31T06:15:00+01:00,36
2016-10-31T06:30:00+01:00,40
2016-10-31T06:45:00+01:00,33
2016-10-31T07:00:00+01:00,58
2016-10-31T07:15:00+01:00,70
2016-10-31T07:30:00+01:00,123
2016-10-31T07:45:00+01:00,128
2016-10-31T08:00:00+01:00,117
2016-10-31T08:15:00+01:00,85
2016-10-31T08:30:00+01:00,78
2016-10-31T08:45:00+01:00,76
2016-10-31T09:00:00+01:00,83
2016-10-31T09:15:00+01:00,80
2016-10-31T09:30:00+01:00,82
2016-10-31T09:45:00+01:00,79
2016-10-31T10:00:00+01:00,113
2016-10-31T10:15:00+01:00,103
2016-10-31T10:30:00+01:00,112
2016-10-31T10:45:00+01:00,121
2016-10-31T11:00:00+01:00,127
2016-10-31T11:15:00+01:00,147
2016-10-31T11:30:00+01:00,151
2016-10-31T11:45:00+01:00,151
2016-10-31T12:00:00+01:00,134
2016-10-31T12:15:00+01:00,117
2016-10-31T12:30:00+01:00,121
2016-10-31T12:45:00+01:00,138
2016-10-31T13:00:00+01:00,135
2016-10-31T13:15:00+01:00,131
2016-10-31T13:30:00+01:00,163
2016-10-31T13:45:00+01:00,212
2016-10-31T14:00:00+01:00,141
2016-10-31T14:15:00+01:00,123
2016-10-31T14:30:00+01:00,142
2016-10-31T14:45:00+01:00,151
2016-10-31T15:00:00+01:00,170
2016-10-31T15:15:00+01:00,174
2016-10-31T15:30:00+01:00,188
2016-10-31T15:45:00+01:00,171
2016-10-31T16:00:00+01:00,146
2016-10-31T16:15:00+01:00,150
2016-10-31T16:30:00+01:00,129
2016-10-31T16:45:00+01:00,142
2016-10-31T17:00:00+01:00,107
2016-10-31T17:15:00+01:00,82
2016-10-31T17:30:00+01:00,82
2016-10-31T17:45:00+01:00,80
2016-10-31T18:00:00+01:00,75
2016-10-31T18:15:00+01:00,57
2016-10-31T18:30:00+01:00,54
2016-10-31T18:45:00+01:00,50
2016-10-31T19:00:00+01:00,49
2016-10-31T19:15:00+01:00,59
2016-10-31T19:30:00+01:00,52
2016-10-31T19:45:00+01:00,37
2016-10-31T20:00:00+01:00,48
2016-10-31T20:15:00+01:00,48
2016-10-31T20:30:00+01:00,40
2016-10-31T20:45:00+01:00,43
2016-10-31T21:00:00+01:00,38
2016-10-31T21:15:00+01:00,43
2016-10-31T21:30:00+01:00,37
2016-10-31T21:45:00+01:00,37
2016-10-31T22:00:00+01:00,33
2016-10-31T22:15:00+01:00,34
2016-10-31T22:30:00+01:00,29
2016-10-31T22:45:00+01:00,25
2016-10-31T23:00:00+01:00,31
2016-10-31T23:15:00+01:00,25
2016-10-31T23:30:00+01:00,25
2016-10-31T23:45:00+01:00,20
2016-11-01T00:00:00+01:00,21
2016-11-01T00:15:00+01:00,21
2016-11-01T00:30:00+01:00,22
2016-11-01T00:45:00+01:00,21
2016-11-01T01:00:00+01:00,18
2016-11-01T01:15:00+01:00,17
2016-11-01T01:30:00+01:00,17
2016-11-01T01:45:00+01:00,15
2016-11-01T02:00:00+01:00,17
2016-11-01T02:15:00+01:00,20
2016-11-01T02:30:00+01:00,24
2016-11-01T02:45:00+01:00,23
2016-11-01T03:00:00+01:00,28
2016-11-01T03:15:00+01:00,22
2016-11-01T03:30:00+01:00,26
2016-11-01T03:45:00+01:00,23
2016-11-01T04:00:00+01:00,23
2016-11-01T04:15:00+01:00,24
2016-11-01T04:30:00+01:00,27
2016-11-01T04:45:00+01:00,24
2016-11-01T05:00:00+01:00,27
2016-11-01T05:15:00+01:00,23
2016-11-01T05:30:00+01:00,20
2016-11-01T05:45:00+01:00,23
2016-11-01T06:00:00+01:00,27
2016-11-01T06:15:00+01:00,24
2016-11-01T06:30:00+01:00,32
2016-11-01T06:45:00+01:00,40
2016-11-01T07:00:00+01:00,57
2016-11-01T07:15:00+01:00,74
2016-11-01T07:30:00+01:00,113
2016-11-01T07:45:00+01:00,126
2016-11-01T08:00:00+01:00,121
2016-11-01T08:15:00+01:00,89
2016-11-01T08:30:00+01:00,93
2016-11-01T08:45:00+01:00,84
2016-11-01T09:00:00+01:00,72
2016-11-01T09:15:00+01:00,107
2016-11-01T09:30:00+01:00,88
2016-11-01T09:45:00+01:00,93
2016-11-01T10:00:00+01:00,104
2016-11-01T10:15:00+01:00,94
2016-11-01T10:30:00+01:00,128
2016-11-01T10:45:00+01:00,111
2016-11-01T11:00:00+01:00,121
2016-11-01T11:15:00+01:00,122
2016-11-01T11:30:00+01:00,132
2016-11-01T11:45:00+01:00,119
2016-11-01T12:00:00+01:00,142
2016-11-01T12:15:00+01:00,141
2016-11-01T12:30:00+01:00,127
2016-11-01T12:45:00+01:00,133
2016-11-01T13:00:00+01:00,127
2016-11-01T13:15:00+01:00,126
2016-11-01T13:30:00+01:00,147
2016-11-01T13:45:00+01:00,179
2016-11-01T14:00:00+01:00,135
2016-11-01T14:15:00+01:00,134
2016-11-01T14:30:00+01:00,128
2016-11-01T14:45:00+01:00,148
2016-11-01T15:00:00+01:00,153
2016-11-01T15:15:00+01:00,177
2016-11-01T15:30:00+01:00,147
2016-11-01T15:45:00+01:00,131
2016-11-01T16:00:00+01:00,119
2016-11-01T16:15:00+01:00,118
2016-11-01T16:30:00+01:00,115
2016-11-01T16:45:00+01:00,97
2016-11-01T17:00:00+01:00,96
2016-11-01T17:15:00+01:00,92
2016-11-01T17:30:00+01:00,82
2016-11-01T17:45:00+01:00,80
2016-11-01T18:00:00+01:00,66
2016-11-01T18:15:00+01:00,73
2016-11-01T18:30:00+01:00,58
2016-11-01T18:45:00+01:00,52
2016-11-01T19:00:00+01:00,59
2016-11-01T19:15:00+01:00,45
2016-11-01T19:30:00+01:00,53
2016-11-01T19:45:00+01:00,57
2016-11-01T20:00:00+01:00,39
2016-11-01T20:15:00+01:00,36
2016-11-01T20:30:00+01:00,47
2016-11-01T20:45:00+01:00,53
2016-11-01T21:00:00+01:00,52
2016-11-01T21:15:00+01:00,40
2016-11-01T21:30:00+01:00,34
2016-11-01T21:45:00+01:00,37
2016-11-01T22:00:00+01:00,29
2016-11-01T22:15:00+01:00,19
2016-11-01T22:30:00+01:00,27
2016-11-01T22:45:00+01:00,26
2016-11-01T23:00:00+01:00,24
2016-11-01T23:15:00+01:00,25
2016-11-01T23:30:00+01:00,22
2016-11-01T23:45:00+01:00,22
2016-11-02T00:00:00+01:00,23
2016-11-02T00:15:00+01:00,22
2016-11-02T00:30:00+01:00,18
2016-11-02T00:45:00+01:00,16
2016-11-02T01:00:00+01:00,21
2016-11-02T01:15:00+01:00,19
2016-11-02T01:30:00+01:00,21
2016-11-02T01:45:00+01:00,17
2016-11-02T02:00:00+01:00,19
2016-11-02T02:15:00+01:00,19
2016-11-02T02:30:00+01:00,20
2016-11-02T02:45:00+01:00,19
2016-11-02T03:00:00+01:00,17
2016-11-02T03:15:00+01:00,21
2016-11-02T03:30:00+01:00,17
2016-11-02T03:45:00+01:00,18
2016-11-02T04:00:00+01:00,21
2016-11-02T04:15:00+01:00,19
2016-11-02T04:30:00+01:00,22
2016-11-02T04:45:00+01:00,19
2016-11-02T05:00:00+01:00,19
2016-11-02T05:15:00+01:00,23
2016-11-02T05:30:00+01:00,20
2016-11-02T05:45:00+01:00,26
2016-11-02T06:00:00+01:00,26
2016-11-02T06:15:00+01:00,31
2016-11-02T06:30:00+01:00,40
2016-11-02T06:45:00+01:00,31
2016-11-02T07:00:00+01:00,45
2016-11-02T07:15:00+01:00,67
2016-11-02T07:30:00+01:00,115
2016-11-02T07:45:00+01:00,120
2016-11-02T08:00:00+01:00,117
2016-11-02T08:15:00+01:00,110
2016-11-02T08:30:00+01:00,82
2016-11-02T08:45:00+01:00,85
2016-11-02T09:00:00+01:00,67
2016-11-02T09:15:00+01:00,77
2016-11-02T09:30:00+01:00,72
2016-11-02T09:45:00+01:00,92
2016-11-02T10:00:00+01:00,88
2016-11-02T10:15:00+01:00,110
2016-11-02T10:30:00+01:00,105
2016-11-02T10:45:00+01:00,122
2016-11-02T11:00:00+01:00,133
2016-11-02T11:15:00+01:00,148
2016-11-02T11:30:00+01:00,140
2016-11-02T11:45:00+01:00,140
2016-11-02T12:00:00+01:00,119
2016-11-02T12:15:00+01:00,114
2016-11-02T12:30:00+01:00,115
2016-11-02T12:45:00+01:00,110
2016-11-02T13:00:00+01:00,124
2016-11-02T13:15:00+01:00,119
2016-11-02T13:30:00+01:00,143
2016-11-02T13:45:00+01:00,198
2016-11-02T14:00:00+01:00,136
2016-11-02T14:15:00+01:00,160
2016-11-02T14:30:00+01:00,167
2016-11-02T14:45:00+01:00,151
2016-11-02T15:00:00+01:00,151
2016-11-02T15:15:00+01:00,179
2016-11-02T15:30:00+01:00,158
2016-11-02T15:45:00+01:00,148
2016-11-02T16:00:00+01:00,145
2016-11-02T16:15:00+01:00,100
2016-11-02T16:30:00+01:00,114
2016-11-02T16:45:00+01:00,103
2016-11-02T17:00:00+01:00,78
2016-11-02T17:15:00+01:00,92
2016-11-02T17:30:00+01:00,85
2016-11-02T17:45:00+01:00,52
2016-11-02T18:00:00+01:00,48
2016-11-02T18:15:00+01:00,67
2016-11-02T18:30:00+01:00,60
2016-11-02T18:45:00+01:00,49
2016-11-02T19:00:00+01:00,50
2016-11-02T19:15:00+01:00,46
2016-11-02T19:30:00+01:00,62
2016-11-02T19:45:00+01:00,55
2016-11-02T20:00:00+01:00,41
2016-11-02T20:15:00+01:00,48
2016-11-02T20:30:00+01:00,47
2016-11-02T20:45:00+01:00,40
2016-11-02T21:00:00+01:00,31
2016-11-02T21:15:00+01:00,35
2016-11-02T21:30:00+01:00,35
2016-11-02T21:45:00+01:00,36
2016-11-02T22:00:00+01:00,28
2016-11-02T22:15:00+01:00,28
2016-11-02T22:30:00+01:00,21
2016-11-02T22:45:00+01:00,28
2016-11-02T23:00:00+01:00,25
2016-11-02T23:15:00+01:00,23
2016-11-02T23:30:00+01:00,23
2016-11-02T23:45:00+01:00,21
2016-11-03T00:00:00+01:00,23
2016-11-03T00:15:00+01:00,20
2016-11-03T00:30:00+01:00,20
2016-11-03T00:45:00+01:00,21
2016-11-03T01:00:00+01:00,21
2016-11-03T01:15:00+01:00,22
2016-11-03T01:30:00+01:00,23
2016-11-03T01:45:00+01:00,20
2016-11-03T02:00:00+01:00,23
2016-11-03T02:15:00+01:00,20
2016-11-03T02:30:00+01:00,23
2016-11-03T02:45:00+01:00,21
2016-11-03T03:00:00+01:00,26
2016-11-03T03:15:00+01:00,23
2016-11-03T03:30:00+01:00,19
2016-11-03T03:45:00+01:00,19
2016-11-03T04:00:00+01:00,25
2016-11-03T04:15:00+01:00,24
2016-11-03T04:30:00+01:00,22
2016-11-03T04:45:00+01:00,21
2016-11-03T05:00:00+01:00,25
2016-11-03T05:15:00+01:00,22
2016-11-03T05:30:00+01:00,22
2016-11-03T05:45:00+01:00,24
2016-11-03T06:00:00+01:00,21
2016-11-03T06:15:00+01:00,28
2016-11-03T06:30:00+01:00,24
2016-11-03T06:45:00+01:00,33
2016-11-03T07:00:00+01:00,45
2016-11-03T07:15:00+01:00,69
2016-11-03T07:30:00+01:00,114
2016-11-03T07:45:00+01:00,132
2016-11-03T08:00:00+01:00,115
2016-11-03T08:15:00+01:00,95
2016-11-03T08:30:00+01:00,82
2016-11-03T08:45:00+01:00,74
2016-11-03T09:00:00+01:00,79
2016-11-03T09:15:00+01:00,78
2016-11-03T09:30:00+01:00,83
2016-11-03T09:45:00+01:00,103
2016-11-03T10:00:00+01:00,102
2016-11-03T10:15:00+01:00,109
2016-11-03T10:30:00+01:00,94
2016-11-03T10:45:00+01:00,114
2016-11-03T11:00:00+01:00,123
2016-11-03T11:15:00+01:00,124
2016-11-03T11:30:00+01:00,130
2016-11-03T11:45:00+01:00,130
2016-11-03T12:00:00+01:00,147
2016-11-03T12:15:00+01:00,122
2016-11-03T12:30:00+01:00,124
2016-11-03T12:45:00+01:00,114
2016-11-03T13:00:00+01:00,129
2016-11-03T13:15:00+01:00,117
2016-11-03T13:30:00+01:00,159
2016-11-03T13:45:00+01:00,178
2016-11-03T14:00:00+01:00,159
2016-11-03T14:15:00+01:00,174
2016-11-03T14:30:00+01:00,168
2016-11-03T14:45:00+01:00,164
2016-11-03T15:00:00+01:00,135
2016-11-03T15:15:00+01:00,182
2016-11-03T15:30:00+01:00,169
2016-11-03T15:45:00+01:00,132
2016-11-03T16:00:00+01:00,147
2016-11-03T16:15:00+01:00,118
2016-11-03T16:30:00+01:00,103
2016-11-03T16:45:00+01:00,111
2016-11-03T17:00:00+01:00,106
2016-11-03T17:15:00+01:00,102
2016-11-03T17:30:00+01:00,77
2016-11-03T17:45:00+01:00,74
2016-11-03T18:00:00+01:00,57
2016-11-03T18:15:00+01:00,56
2016-11-03T18:30:00+01:00,45
2016-11-03T18:45:00+01:00,49
2016-11-03T19:00:00+01:00,45
2016-11-03T19:15:00+01:00,54
2016-11-03T19:30:00+01:00,37
2016-11-03T19:45:00+01:00,51
2016-11-03T20:00:00+01:00,48
2016-11-03T20:15:00+01:00,42
2016-11-03T20:30:00+01:00,37
2016-11-03T20:45:00+01:00,45
2016-11-03T21:00:00+01:00,46
2016-11-03T21:15:00+01:00,34
2016-11-03T21:30:00+01:00,32
2016-11-03T21:45:00+01:00,31
2016-11-03T22:00:00+01:00,32
2016-11-03T22:15:00+01:00,32
2016-11-03T22:30:00+01:00,25
2016-11-03T22:45:00+01:00,24
2016-11-03T23:00:00+01:00,23
2016-11-03T23:15:00+01:00,23
2016-11-03T23:30:00+01:00,26
2016-11-03T23:45:00+01:00,22
2016-11-04T00:00:00+01:00,22
2016-11-04T00:15:00+01:00,20
2016-11-04T00:30:00+01:00,23
2016-11-04T00:45:00+01:00,21
2016-11-04T01:00:00+01:00,18
2016-11-04T01:15:00+01:00,20
2016-11-04T01:30:00+01:00,18
2016-11-04T01:45:00+01:00,21
2016-11-04T02:00:00+01:00,17
2016-11-04T02:15:00+01:00,22
2016-11-04T02:30:00+01:00,20
2016-11-04T02:45:00+01:00,19
2016-11-04T03:00:00+01:00,27
2016-11-04T03:15:00+01:00,19
2016-11-04T03:30:00+01:00,20
2016-11-04T03:45:00+01:00,20
2016-11-04T04:00:00+01:00,17
2016-11-04T04:15:00+01:00,18
2016-11-04T04:30:00+01:00,18
2016-11-04T04:45:00+01:00,19
2016-11-04T05:00:00+01:00,17
2016-11-04T05:15:00+01:00,19
2016-11-04T05:30:00+01:00,21
2016-11-04T05:45:00+01:00,27
2016-11-04T06:00:00+01:00,28
2016-11-04T06:15:00+01:00,22
2016-11-04T06:30:00+01:00,23
2016-11-04T06:45:00+01:00,29
2016-11-04T07:00:00+01:00,40
2016-11-04T07:15:00+01:00,62
2016-11-04T07:30:00+01:00,87
2016-11-04T07:45:00+01:00,132
2016-11-04T08:00:00+01:00,97
2016-11-04T08:15:00+01:00,80
2016-11-04T08:30:00+01:00,78
2016-11-04T08:45:00+01:00,74
2016-11-04T09:00:00+01:00,63
2016-11-04T09:15:00+01:00,70
2016-11-04T09:30:00+01:00,87
2016-11-04T09:45:00+01:00,90
2016-11-04T10:00:00+01:00,91
2016-11-04T10:15:00+01:00,92
2016-11-04T10:30:00+01:00,96
2016-11-04T10:45:00+01:00,107
2016-11-04T11:00:00+01:00,139
2016-11-04T11:15:00+01:00,115
2016-11-04T11:30:00+01:00,148
2016-11-04T11:45:00+01:00,130
2016-11-04T12:00:00+01:00,118
2016-11-04T12:15:00+01:00,127
2016-11-04T12:30:00+01:00,126
2016-11-04T12:45:00+01:00,128
2016-11-04T13:00:00+01:00,126
2016-11-04T13:15:00+01:00,139
2016-11-04T13:30:00+01:00,178
2016-11-04T13:45:00+01:00,178
2016-11-04T14:00:00+01:00,153
2016-11-04T14:15:00+01:00,157
2016-11-04T14:30:00+01:00,192
2016-11-04T14:45:00+01:00,160
2016-11-04T15:00:00+01:00,162
2016-11-04T15:15:00+01:00,157
2016-11-04T15:30:00+01:00,177
2016-11-04T15:45:00+01:00,168
2016-11-04T16:00:00+01:00,143
2016-11-04T16:15:00+01:00,136
2016-11-04T16:30:00+01:00,132
2016-11-04T16:45:00+01:00,147
2016-11-04T17:00:00+01:00,124
2016-11-04T17:15:00+01:00,116
2016-11-04T17:30:00+01:00,110
2016-11-04T17:45:00+01:00,110
2016-11-04T18:00:00+01:00,107
2016-11-04T18:15:00+01:00,111
2016-11-04T18:30:00+01:00,92
2016-11-04T18:45:00+01:00,90
2016-11-04T19:00:00+01:00,89
2016-11-04T19:15:00+01:00,76
2016-11-04T19:30:00+01:00,63
2016-11-04T19:45:00+01:00,68
2016-11-04T20:00:00+01:00,61
2016-11-04T20:15:00+01:00,61
2016-11-04T20:30:00+01:00,55
2016-11-04T20:45:00+01:00,41
2016-11-04T21:00:00+01:00,52
2016-11-04T21:15:00+01:00,53
2016-11-04T21:30:00+01:00,48
2016-11-04T21:45:00+01:00,40
2016-11-04T22:00:00+01:00,44
2016-11-04T22:15:00+01:00,49
2016-11-04T22:30:00+01:00,47
2016-11-04T22:45:00+01:00,52
2016-11-04T23:00:00+01:00,42
2016-11-04T23:15:00+01:00,39
2016-11-04T23:30:00+01:00,40
2016-11-04T23:45:00+01:00,37
2016-11-05T00:00:00+01:00,39
2016-11-05T00:15:00+01:00,40
2016-11-05T00:30:00+01:00,39
2016-11-05T00:45:00+01:00,40
2016-11-05T01:00:00+01:00,42
2016-11-05T01:15:00+01:00,39
2016-11-05T01:30:00+01:00,35
2016-11-05T01:45:00+01:00,31
2016-11-05T02:00:00+01:00,33
2016-11-05T02:15:00+01:00,32
2016-11-05T02:30:00+01:00,38
2016-11-05T02:45:00+01:00,30
2016-11-05T03:00:00+01:00,30
2016-11-05T03:15:00+01:00,30
2016-11-05T03:30:00+01:00,29
2016-11-05T03:45:00+01:00,28
2016-11-05T04:00:00+01:00,32
2016-11-05T04:15:00+01:00,30
2016-11-05T04:30:00+01:00,28
2016-11-05T04:45:00+01:00,30
2016-11-05T05:00:00+01:00,30
2016-11-05T05:15:00+01:00,32
2016-11-05T05:30:00+01:00,32
2016-11-05T05:45:00+01:00,30
2016-11-05T06:00:00+01:00,28
2016-11-05T06:15:00+01:00,26
2016-11-05T06:30:00+01:00,29
2016-11-05T06:45:00+01:00,34
2016-11-05T07:00:00+01:00,36
2016-11-05T07:15:00+01:00,39
2016-11-05T07:30:00+01:00,47
2016-11-05T07:45:00+01:00,43
2016-11-05T08:00:00+01:00,31
2016-11-05T08:15:00+01:00,36
2016-11-05T08:30:00+01:00,41
2016-11-05T08:45:00+01:00,43
2016-11-05T09:00:00+01:00,45
2016-11-05T09:15:00+01:00,44
2016-11-05T09:30:00+01:00,60
2016-11-05T09:45:00+01:00,71
2016-11-05T10:00:00+01:00,72
2016-11-05T10:15:00+01:00,95
2016-11-05T10:30:00+01:00,110
2016-11-05T10:45:00+01:00,110
2016-11-05T11:00:00+01:00,105
2016-11-05T11:15:00+01:00,105
2016-11-05T11:30:00+01:00,122
2016-11-05T11:45:00+01:00,132
2016-11-05T12:00:00+01:00,160
2016-11-05T12:15:00+01:00,160
2016-11-05T12:30:00+01:00,152
2016-11-05T12:45:00+01:00,154
2016-11-05T13:00:00+01:00,137
2016-11-05T13:15:00+01:00,133
2016-11-05T13:30:00+01:00,131
2016-11-05T13:45:00+01:00,119
2016-11-05T14:00:00+01:00,140
2016-11-05T14:15:00+01:00,114
2016-11-05T14:30:00+01:00,127
2016-11-05T14:45:00+01:00,109
2016-11-05T15:00:00+01:00,105
2016-11-05T15:15:00+01:00,91
2016-11-05T15:30:00+01:00,69
2016-11-05T15:45:00+01:00,57
2016-11-05T16:00:00+01:00,68
2016-11-05T16:15:00+01:00,58
2016-11-05T16:30:00+01:00,62
2016-11-05T16:45:00+01:00,59
2016-11-05T17:00:00+01:00,65
2016-11-05T17:15:00+01:00,61
2016-11-05T17:30:00+01:00,52
2016-11-05T17:45:00+01:00,65
2016-11-05T18:00:00+01:00,51
2016-11-05T18:15:00+01:00,52
2016-11-05T18:30:00+01:00,51
2016-11-05T18:45:00+01:00,39
2016-11-05T19:00:00+01:00,50
2016-11-05T19:15:00+01:00,42
2016-11-05T19:30:00+01:00,45
2016-11-05T19:45:00+01:00,50
2016-11-05T20:00:00+01:00,39
2016-11-05T20:15:00+01:00,46
2016-11-05T20:30:00+01:00,40
2016-11-05T20:45:00+01:00,47
2016-11-05T21:00:00+01:00,45
2016-11-05T21:15:00+01:00,42
2016-11-05T21:30:00+01:00,35
2016-11-05T21:45:00+01:00,36
2016-11-05T22:00:00+01:00,34
2016-11-05T22:15:00+01:00,41
2016-11-05T22:30:00+01:00,38
2016-11-05T22:45:00+01:00,33
2016-11-05T23:00:00+01:00,32
2016-11-05T23:15:00+01:00,35
2016-11-05T23:30:00+01:00,38
2016-11-05T23:45:00+01:00,30
2016-11-06T00:00:00+01:00,34
2016-11-06T00:15:00+01:00,31
2016-11-06T00:30:00+01:00,35
2016-11-06T00:45:00+01:00,27
2016-11-06T01:00:00+01:00,27
2016-11-06T01:15:00+01:00,28
2016-11-06T01:30:00+01:00,33
2016-11-06T01:45:00+01:00,29
2016-11-06T02:00:00+01:00,27
2016-11-06T02:15:00+01:00,26
2016-11-06T02:30:00+01:00,29
2016-11-06T02:45:00+01:00,26
2016-11-06T03:00:00+01:00,25
2016-11-06T03:15:00+01:00,24
2016-11-06T03:30:00+01:00,28
2016-11-06T03:45:00+01:00,27
2016-11-06T04:00:00+01:00,30
2016-11-06T04:15:00+01:00,28
2016-11-06T04:30:00+01:00,27
2016-11-06T04:45:00+01:00,28
2016-11-06T05:00:00+01:00,29
2016-11-06T05:15:00+01:00,27
2016-11-06T05:30:00+01:00,26
2016-11-06T05:45:00+01:00,26
2016-11-06T06:00:00+01:00,26
2016-11-06T06:15:00+01:00,24
2016-11-06T06:30:00+01:00,28
2016-11-06T06:45:00+01:00,33
2016-11-06T07:00:00+01:00,31
2016-11-06T07:15:00+01:00,34
2016-11-06T07:30:00+01:00,29
2016-11-06T07:45:00+01:00,32
2016-11-06T08:00:00+01:00,30
2016-11-06T08:15:00+01:00,32
2016-11-06T08:30:00+01:00,39
2016-11-06T08:45:00+01:00,40
2016-11-06T09:00:00+01:00,36
2016-11-06T09:15:00+01:00,34
2016-11-06T09:30:00+01:00,36
2016-11-06T09:45:00+01:00,47
2016-11-06T10:00:00+01:00,54
2016-11-06T10:15:00+01:00,49
2016-11-06T10:30:00+01:00,51
2016-11-06T10:45:00+01:00,58
2016-11-06T11:00:00+01:00,55
2016-11-06T11:15:00+01:00,51
2016-11-06T11:30:00+01:00,50
2016-11-06T11:45:00+01:00,50
2016-11-06T12:00:00+01:00,59
2016-11-06T12:15:00+01:00,56
2016-11-06T12:30:00+01:00,66
2016-11-06T12:45:00+01:00,60
2016-11-06T13:00:00+01:00,57
2016-11-06T13:15:00+01:00,65
2016-11-06T13:30:00+01:00,51
2016-11-06T13:45:00+01:00,53
2016-11-06T14:00:00+01:00,60
2016-11-06T14:15:00+01:00,64
2016-11-06T14:30:00+01:00,51
2016-11-06T14:45:00+01:00,55
2016-11-06T15:00:00+01:00,67
2016-11-06T15:15:00+01:00,59
2016-11-06T15:30:00+01:00,63
2016-11-06T15:45:00+01:00,56
2016-11-06T16:00:00+01:00,47
2016-11-06T16:15:00+01:00,38
2016-11-06T16:30:00+01:00,48
2016-11-06T16:45:00+01:00,44
2016-11-06T17:00:00+01:00,45
2016-11-06T17:15:00+01:00,39
2016-11-06T17:30:00+01:00,36
2016-11-06T17:45:00+01:00,35
2016-11-06T18:00:00+01:00,35
2016-11-06T18:15:00+01:00,33
2016-11-06T18:30:00+01:00,35
2016-11-06T18:45:00+01:00,35
2016-11-06T19:00:00+01:00,38
2016-11-06T19:15:00+01:00,36
2016-11-06T19:30:00+01:00,36
2016-11-06T19:45:00+01:00,35
2016-11-06T20:00:00+01:00,34
2016-11-06T20:15:00+01:00,40
2016-11-06T20:30:00+01:00,32
2016-11-06T20:45:00+01:00,34
2016-11-06T21:00:00+01:00,36
2016-11-06T21:15:00+01:00,35
2016-11-06T21:30:00+01:00,26
2016-11-06T21:45:00+01:00,32
2016-11-06T22:00:00+01:00,33
2016-11-06T22:15:00+01:00,29
2016-11-06T22:30:00+01:00,32
2016-11-06T22:45:00+01:00,31
2016-11-06T23:00:00+01:00,32
2016-11-06T23:15:00+01:00,33
2016-11-06T23:30:00+01:00,29
2016-11-06T23:45:00+01:00,31
2016-11-07T00:00:00+01:00,29
2016-11-07T00:15:00+01:00,30
2016-11-07T00:30:00+01:00,28
2016-11-07T00:45:00+01:00,29
2016-11-07T01:00:00+01:00,29
2016-11-07T01:15:00+01:00,30
2016-11-07T01:30:00+01:00,26
2016-11-07T01:45:00+01:00,25
2016-11-07T02:00:00+01:00,28
2016-11-07T02:15:00+01:00,29
2016-11-07T02:30:00+01:00,32
2016-11-07T02:45:00+01:00,29
2016-11-07T03:00:00+01:00,30
2016-11-07T03:15:00+01:00,34
2016-11-07T03:30:00+01:00,32
2016-11-07T03:45:00+01:00,28
2016-11-07T04:00:00+01:00,28
2016-11-07T04:15:00+01:00,27
2016-11-07T04:30:00+01:00,28
2016-11-07T04:45:00+01:00,31
2016-11-07T05:00:00+01:00,30
2016-11-07T05:15:00+01:00,24
2016-11-07T05:30:00+01:00,28
2016-11-07T05:45:00+01:00,32
2016-11-07T06:00:00+01:00,28
2016-11-07T06:15:00+01:00,30
2016-11-07T06:30:00+01:00,35
2016-11-07T06:45:00+01:00,35
2016-11-07T07:00:00+01:00,58
2016-11-07T07:15:00+01:00,70
2016-11-07T07:30:00+01:00,117
2016-11-07T07:45:00+01:00,140
2016-11-07T08:00:00+01:00,105
2016-11-07T08:15:00+01:00,101
2016-11-07T08:30:00+01:00,71
2016-11-07T08:45:00+01:00,67
2016-11-07T09:00:00+01:00,64
2016-11-07T09:15:00+01:00,75
2016-11-07T09:30:00+01:00,88
2016-11-07T09:45:00+01:00,83
2016-11-07T10:00:00+01:00,91
2016-11-07T10:15:00+01:00,101
2016-11-07T10:30:00+01:00,105
2016-11-07T10:45:00+01:00,123
2016-11-07T11:00:00+01:00,128
2016-11-07T11:15:00+01:00,115
2016-11-07T11:30:00+01:00,123
2016-11-07T11:45:00+01:00,123
2016-11-07T12:00:00+01:00,116
2016-11-07T12:15:00+01:00,116
2016-11-07T12:30:00+01:00,114
2016-11-07T12:45:00+01:00,135
2016-11-07T13:00:00+01:00,127
2016-11-07T13:15:00+01:00,133
2016-11-07T13:30:00+01:00,141
2016-11-07T13:45:00+01:00,206
2016-11-07T14:00:00+01:00,167
2016-11-07T14:15:00+01:00,120
2016-11-07T14:30:00+01:00,165
2016-11-07T14:45:00+01:00,130
2016-11-07T15:00:00+01:00,140
2016-11-07T15:15:00+01:00,130
2016-11-07T15:30:00+01:00,146
2016-11-07T15:45:00+01:00,126
2016-11-07T16:00:00+01:00,115
2016-11-07T16:15:00+01:00,133
2016-11-07T16:30:00+01:00,116
2016-11-07T16:45:00+01:00,114
2016-11-07T17:00:00+01:00,89
2016-11-07T17:15:00+01:00,82
2016-11-07T17:30:00+01:00,88
2016-11-07T17:45:00+01:00,64
2016-11-07T18:00:00+01:00,71
2016-11-07T18:15:00+01:00,62
2016-11-07T18:30:00+01:00,54
2016-11-07T18:45:00+01:00,57
2016-11-07T19:00:00+01:00,55
2016-11-07T19:15:00+01:00,45
2016-11-07T19:30:00+01:00,60
2016-11-07T19:45:00+01:00,47
2016-11-07T20:00:00+01:00,42
2016-11-07T20:15:00+01:00,37
2016-11-07T20:30:00+01:00,49
2016-11-07T20:45:00+01:00,48
2016-11-07T21:00:00+01:00,43
2016-11-07T21:15:00+01:00,43
2016-11-07T21:30:00+01:00,48
2016-11-07T21:45:00+01:00,39
2016-11-07T22:00:00+01:00,41
2016-11-07T22:15:00+01:00,30
2016-11-07T22:30:00+01:00,32
2016-11-07T22:45:00+01:00,29
2016-11-07T23:00:00+01:00,29
2016-11-07T23:15:00+01:00,28
2016-11-07T23:30:00+01:00,28
2016-11-07T23:45:00+01:00,29
2016-11-08T00:00:00+01:00,30
2016-11-08T00:15:00+01:00,28
2016-11-08T00:30:00+01:00,30
2016-11-08T00:45:00+01:00,28
2016-11-08T01:00:00+01:00,25
2016-11-08T01:15:00+01:00,25
2016-11-08T01:30:00+01:00,26
2016-11-08T01:45:00+01:00,25
2016-11-08T02:00:00+01:00,26
2016-11-08T02:15:00+01:00,24
2016-11-08T02:30:00+01:00,29
2016-11-08T02:45:00+01:00,27
2016-11-08T03:00:00+01:00,31
2016-11-08T03:15:00+01:00,23
2016-11-08T03:30:00+01:00,24
2016-11-08T03:45:00+01:00,27
2016-11-08T04:00:00+01:00,27
2016-11-08T04:15:00+01:00,25
2016-11-08T04:30:00+01:00,29
2016-11-08T04:45:00+01:00,31
2016-11-08T05:00:00+01:00,36
2016-11-08T05:15:00+01:00,30
2016-11-08T05:30:00+01:00,27
2016-11-08T05:45:00+01:00,27
2016-11-08T06:00:00+01:00,33
2016-11-08T06:15:00+01:00,37
2016-11-08T06:30:00+01:00,41
2016-11-08T06:45:00+01:00,53
2016-11-08T07:00:00+01:00,57
2016-11-08T07:15:00+01:00,77
2016-11-08T07:30:00+01:00,123
2016-11-08T07:45:00+01:00,120
2016-11-08T08:00:00+01:00,123
2016-11-08T08:15:00+01:00,77
2016-11-08T08:30:00+01:00,86
2016-11-08T08:45:00+01:00,75
2016-11-08T09:00:00+01:00,72
2016-11-08T09:15:00+01:00,83
2016-11-08T09:30:00+01:00,105
2016-11-08T09:45:00+01:00,90
2016-11-08T10:00:00+01:00,91
2016-11-08T10:15:00+01:00,75
2016-11-08T10:30:00+01:00,88
2016-11-08T10:45:00+01:00,110
2016-11-08T11:00:00+01:00,113
2016-11-08T11:15:00+01:00,104
2016-11-08T11:30:00+01:00,125
2016-11-08T11:45:00+01:00,111
2016-11-08T12:00:00+01:00,100
2016-11-08T12:15:00+01:00,123
2016-11-08T12:30:00+01:00,119